West Palm Beach, FL

12:09 AM EDT on September 27, 2016 (GMT -0400)
Palm Beach International

Weather History for KPBI - January, 2014

Change the Weather History Date:

Thursday, January 2, 2014

  Actual Average Record
Temperature  
Mean Temperature 78 °F 66 °F  
Max Temperature 86 °F 75 °F 86 °F (1996)
Min Temperature 69 °F 57 °F 29 °F (1918)
Degree Days  
Heating Degree Days 0 3  
Month to date heating degree days 0 6  
Since 1 July heating degree days 4 77  
Cooling Degree Days 13 4  
Month to date cooling degree days 26 8  
Year to date cooling degree days 26 8  
Growing Degree Days 28 (Base 50)    
Moisture  
Dew Point 66 °F    
Average Humidity 69    
Maximum Humidity 90    
Minimum Humidity 48    
Precipitation  
Precipitation 0.00 in 0.11 in 3.90 in (1999)
Month to date precipitation T 0.22  
Year to date precipitation T 0.22  
Snow  
Snow 0.00 in - - ()
Month to date snowfall 0.0  
Since 1 July snowfall 0.0  
Snow Depth 0.00 in    
Sea Level Pressure  
Sea Level Pressure 29.95 in    
Wind  
Wind Speed 10 mph (SSW)    
Max Wind Speed 22 mph    
Max Gust Speed 29 mph    
Visibility 10 miles    
Events      
T = Trace of Precipitation, MM = Missing Value Source: NWS Daily Summary

Daily Weather History Graph

Daily Weather History Graph

Search for Another Location

Airport or City:

Trip Planner

Search our weather history database for the weather conditions in past years. The results will help you decide how hot, cold, wet, or windy it might be!

Date:

Astronomy

Jan. 02, 2014 Rise Set
Actual Time 7:09 AM EST 5:39 PM EST
Civil Twilight 6:43 AM EST 6:05 PM EST
Nautical Twilight 6:15 AM EST 6:33 PM EST
Astronomical Twilight 5:46 AM EST 7:02 PM EST
Moon 7:59 AM EST (1/2) 7:22 PM EST (1/2)
Length of Visible Light 11h 21m
Length of Day
10h 30m
New Moon, 2% of the Moon is Illuminated
Jan 2
New Moon
Jan 7
First Quarter
Jan 15
Full
Jan 24
Last Quarter
Jan 30
New

Hourly Weather History & Observations

Time (EST) Temp. Heat Index Dew Point Humidity Pressure Visibility Wind Dir Wind Speed Gust Speed Precip Events Conditions
12:53 AM 75.9 °F - 71.1 °F 85% 30.03 in 10.0 mi SSE 9.2 mph - N/A   Partly Cloudy
1:53 AM 75.0 °F - 70.0 °F 84% 30.01 in 10.0 mi South 3.5 mph - N/A   Partly Cloudy
2:53 AM 73.0 °F - 69.1 °F 87% 30.00 in 10.0 mi Calm Calm - N/A   Partly Cloudy
3:53 AM 71.1 °F - 68.0 °F 90% 29.99 in 10.0 mi Calm Calm - N/A   Partly Cloudy
4:53 AM 71.1 °F - 68.0 °F 90% 29.99 in 10.0 mi SSW 3.5 mph - N/A   Partly Cloudy
5:53 AM 69.1 °F - 66.9 °F 93% 30.00 in 10.0 mi Calm Calm - N/A   Partly Cloudy
6:53 AM 71.1 °F - 66.9 °F 87% 29.99 in 10.0 mi South 4.6 mph - N/A   Scattered Clouds
7:53 AM 72.0 °F - 66.9 °F 84% 30.01 in 10.0 mi South 5.8 mph - N/A   Scattered Clouds
8:53 AM 75.9 °F - 68.0 °F 76% 30.01 in 10.0 mi South 5.8 mph - N/A   Scattered Clouds
9:53 AM 80.1 °F 82.3 °F 66.9 °F 64% 30.01 in 10.0 mi South 13.8 mph 20.7 mph N/A   Scattered Clouds
10:53 AM 82.0 °F 83.8 °F 64.9 °F 56% 29.99 in 10.0 mi South 16.1 mph - N/A   Scattered Clouds
11:53 AM 82.9 °F 84.4 °F 64.0 °F 53% 29.96 in 10.0 mi SSW 19.6 mph - N/A   Scattered Clouds
12:53 PM 84.9 °F 86.1 °F 64.0 °F 49% 29.92 in 10.0 mi SSW 16.1 mph - N/A   Scattered Clouds
1:53 PM 86.0 °F 87.6 °F 64.9 °F 49% 29.89 in 10.0 mi SSW 15.0 mph - N/A   Scattered Clouds
2:53 PM 84.9 °F 85.9 °F 63.0 °F 48% 29.87 in 10.0 mi SW 17.3 mph 25.3 mph N/A   Scattered Clouds
3:53 PM 84.9 °F 86.1 °F 64.0 °F 49% 29.86 in 10.0 mi SW 13.8 mph - N/A   Scattered Clouds
4:53 PM 82.9 °F 85.0 °F 66.0 °F 56% 29.88 in 10.0 mi SW 12.7 mph 21.9 mph N/A   Scattered Clouds
5:53 PM 80.1 °F 81.5 °F 63.0 °F 56% 29.88 in 10.0 mi WSW 11.5 mph - N/A   Scattered Clouds
6:53 PM 78.1 °F - 63.0 °F 60% 29.90 in 10.0 mi SW 9.2 mph - N/A   Partly Cloudy
7:53 PM 75.9 °F - 64.0 °F 67% 29.92 in 10.0 mi WSW 10.4 mph - N/A   Partly Cloudy
8:53 PM 75.0 °F - 66.0 °F 73% 29.93 in 10.0 mi WSW 10.4 mph - N/A   Partly Cloudy
9:53 PM 73.9 °F - 66.9 °F 79% 29.93 in 10.0 mi SW 9.2 mph - N/A   Partly Cloudy
10:53 PM 73.9 °F - 68.0 °F 82% 29.93 in 10.0 mi SW 9.2 mph - N/A   Mostly Cloudy
11:53 PM 73.0 °F - 69.1 °F 87% 29.93 in 10.0 mi WSW 11.5 mph - N/A   Mostly Cloudy